Precipitable_Water
1.30 1.08 0.98 1.06 1.10 1.09 1.01 0.92 0.85 0.94 1.09 1.00 0.95 0.94 1.00 1.10 1.00 0.92 0.96 1.04 1.11 1.22 1.43 1.55 1.65 1.72 1.74 1.78 1.75 1.71 1.61 1.69 1.63 1.51 1.33 1.38 1.31 1.35 1.44 1.57 1.67 1.67 1.64 1.55
1.09 0.93 1.05 1.10 1.12 1.04 1.02 0.97 0.97 1.10 1.22 1.13 1.04 0.95 1.06 1.11 1.05 1.03 0.97 0.96 1.04 1.16 1.30 1.42 1.54 1.62 1.68 1.70 1.72 1.73 1.74 1.73 1.82 1.73 1.61 1.55 1.49 1.55 1.62 1.70 1.65 1.63 1.67 1.69
0.94 0.98 1.10 1.02 0.98 0.91 0.94 0.93 0.97 0.96 1.12 1.19 1.06 0.91 0.98 1.11 1.19 1.21 1.19 1.13 1.05 1.09 1.15 1.27 1.37 1.45 1.56 1.64 1.73 1.78 1.80 1.82 1.86 1.94 1.85 1.76 1.67 1.66 1.62 1.66 1.76 1.85 2.08 2.03
0.94 1.08 0.95 0.86 0.83 0.90 0.78 0.98 0.94 0.93 0.89 0.77 1.06 0.70 0.90 1.01 1.04 1.13 1.21 1.19 1.13 1.04 1.14 1.22 1.33 1.40 1.48 1.54 1.70 1.78 1.86 1.89 1.93 2.04 1.89 1.76 1.55 1.47 1.64 1.73 1.86 1.99 2.13 2.12
0.90 0.95 0.89 0.79 0.71 0.85 0.80 0.95 0.90 0.86 0.83 0.82 0.84 0.73 0.79 0.90 0.84 1.01 1.16 1.23 1.25 1.18 1.15 1.17 1.25 1.37 1.47 1.58 1.62 1.69 1.80 1.86 1.91 1.96 1.96 1.81 1.65 1.68 1.80 1.85 1.85 1.95 2.09 2.15
0.95 1.10 0.93 0.83 0.90 0.84 0.94 0.90 0.88 0.87 0.79 0.59 0.70 0.71 0.60 0.71 0.78 0.90 1.10 1.19 1.26 1.29 1.24 1.32 1.39 1.47 1.50 1.57 1.62 1.69 1.71 1.77 1.88 1.91 1.96 1.90 1.70 1.76 1.79 1.85 1.89 1.94 2.00 2.07
0.70 0.72 0.83 0.81 0.78 0.94 0.87 0.77 0.55 0.53 0.50 0.47 0.71 0.63 0.62 0.73 0.84 0.95 1.00 1.16 1.23 1.30 1.29 1.34 1.38 1.45 1.53 1.58 1.66 1.71 1.77 1.76 1.87 1.90 1.93 1.96 1.89 1.86 1.85 1.89 1.91 1.92 1.90 1.95
0.48 0.45 0.58 0.70 0.69 0.64 0.75 0.76 0.53 0.38 0.39 0.41 0.61 0.43 0.50 0.77 0.91 0.99 1.06 1.07 1.17 1.23 1.28 1.38 1.43 1.52 1.61 1.66 1.76 1.80 1.80 1.88 1.98 2.00 2.00 2.12 2.10 2.04 2.00 1.96 1.96 1.96 1.95 2.00
0.31 0.32 0.36 0.34 0.44 0.57 0.68 0.57 0.67 0.52 0.51 0.38 0.40 0.46 0.52 0.66 0.73 0.83 0.93 1.04 1.16 1.24 1.31 1.41 1.51 1.60 1.67 1.72 1.79 1.85 1.87 1.92 2.02 2.03 2.07 2.10 2.10 2.09 2.09 2.08 2.05 1.98 1.96 1.97
0.27 0.21 0.27 0.27 0.30 0.42 0.47 0.62 0.51 0.53 0.33 0.28 0.34 0.39 0.35 0.44 0.58 0.76 0.84 0.99 1.12 1.23 1.33 1.42 1.51 1.60 1.72 1.80 1.84 1.84 1.90 1.86 1.84 1.87 1.81 1.92 2.02 2.03 2.13 2.06 1.86 1.83 1.89 1.86
0.28 0.24 0.22 0.25 0.24 0.24 0.29 0.28 0.32 0.35 0.37 0.29 0.29 0.36 0.62 0.63 0.73 0.74 0.82 0.97 1.09 1.16 1.31 1.44 1.53 1.69 1.78 1.86 1.89 2.08 1.93 1.91 1.75 1.72 1.59 1.68 1.80 1.78 1.74 1.74 1.81 1.77 1.74 1.71
0.31 0.27 0.23 0.23 0.28 0.29 0.29 0.29 0.31 0.27 0.30 0.36 0.35 0.35 0.74 0.74 0.76 0.79 0.83 0.96 1.11 1.20 1.27 1.37 1.50 1.64 1.73 1.76 1.80 1.82 1.67 1.79 1.68 1.61 1.58 1.54 1.67 1.68 1.68 1.67 1.66 1.68 1.62 1.61
0.34 0.30 0.25 0.26 0.26 0.29 0.28 0.30 0.31 0.31 0.30 0.27 0.26 0.31 0.70 0.77 0.79 0.83 0.91 1.00 1.14 1.18 1.24 1.34 1.40 1.42 1.44 1.48 1.42 1.44 1.52 1.51 1.53 1.61 1.59 1.58 1.58 1.58 1.58 1.59 1.58 1.52 1.41 1.26
0.38 0.32 0.30 0.27 0.29 0.30 0.30 0.34 0.33 0.31 0.26 0.26 0.25 0.28 0.47 0.59 0.67 0.80 0.94 1.07 1.13 1.13 1.17 1.20 1.21 1.25 1.28 1.36 1.38 1.41 1.41 1.44 1.43 1.43 1.42 1.50 1.55 1.51 1.45 1.36 1.26 1.15 1.11 1.06
0.40 0.30 0.31 0.34 0.38 0.39 0.37 0.38 0.43 0.31 0.31 0.26 0.30 0.31 0.46 0.60 0.71 0.84 1.03 1.13 1.09 1.08 1.12 1.16 1.24 1.30 1.36 1.40 1.40 1.40 1.38 1.37 1.41 1.33 1.36 1.32 1.32 1.29 1.25 1.20 1.10 1.03 1.07 1.01
0.48 0.35 0.35 0.33 0.41 0.43 0.40 0.43 0.46 0.49 0.44 0.40 0.43 0.43 0.69 0.80 0.87 0.95 0.98 0.99 0.99 1.04 1.11 1.16 1.22 1.24 1.22 1.22 1.22 1.24 1.25 1.27 1.25 1.18 1.13 1.12 1.06 1.00 0.94 0.89 0.88 0.93 0.95 0.95
0.46 0.39 0.35 0.29 0.38 0.38 0.34 0.42 0.45 0.48 0.55 0.51 0.38 0.53 0.75 0.76 0.87 0.90 0.93 0.97 1.00 1.13 1.17 1.17 1.17 1.17 1.15 1.15 1.14 1.04 1.01 1.03 1.01 0.96 0.91 0.85 0.83 0.83 0.85 0.86 0.83 0.80 0.80 0.82
0.49 0.46 0.41 0.35 0.41 0.31 0.43 0.55 0.58 0.51 0.55 0.60 0.62 0.74 0.82 0.85 0.95 0.99 0.99 0.96 1.00 1.07 1.12 1.16 1.22 1.14 0.96 0.91 0.91 0.90 0.90 0.88 0.85 0.83 0.80 0.80 0.79 0.77 0.77 0.74 0.71 0.72 0.73 0.71
0.51 0.43 0.38 0.33 0.31 0.36 0.38 0.45 0.46 0.41 0.49 0.72 0.71 0.79 0.86 0.91 0.91 0.88 1.03 1.05 1.04 1.10 1.13 1.17 1.16 1.02 0.96 0.94 0.94 0.94 0.88 0.86 0.82 0.76 0.74 0.74 0.73 0.72 0.73 0.71 0.74 0.77 0.77 0.76
0.50 0.46 0.37 0.33 0.25 0.21 0.33 0.47 0.56 0.54 0.37 0.70 0.74 0.74 0.78 0.82 0.62 0.75 0.98 1.00 1.02 1.14 1.18 1.06 0.95 0.95 0.98 0.97 0.93 0.81 0.74 0.68 0.65 0.67 0.69 0.73 0.74 0.76 0.75 0.76 0.76 0.78 0.79 0.76
0.42 0.40 0.33 0.31 0.28 0.31 0.45 0.55 0.62 0.38 0.42 0.61 0.74 0.80 0.81 0.75 0.78 0.88 1.01 1.03 1.07 1.05 0.96 0.82 0.74 0.71 0.78 0.83 0.76 0.64 0.58 0.54 0.60 0.65 0.69 0.70 0.72 0.69 0.71 0.72 0.73 0.73 0.71 0.71
0.39 0.35 0.32 0.36 0.32 0.28 0.57 0.58 0.48 0.56 0.65 0.71 0.80 0.86 0.86 0.88 0.89 0.95 1.01 1.02 0.91 0.82 0.79 0.73 0.68 0.72 0.77 0.78 0.73 0.62 0.56 0.65 0.69 0.69 0.69 0.71 0.73 0.74 0.74 0.72 0.73 0.76 0.73 0.69
0.43 0.49 0.44 0.45 0.43 0.58 0.63 0.61 0.68 0.69 0.69 0.76 0.82 0.84 0.88 0.88 0.85 0.76 0.78 0.77 0.76 0.73 0.66 0.71 0.71 0.71 0.77 0.77 0.71 0.61 0.59 0.68 0.69 0.70 0.68 0.69 0.72 0.73 0.71 0.69 0.73 0.75 0.74 0.68
0.58 0.65 0.52 0.51 0.56 0.59 0.63 0.69 0.70 0.72 0.71 0.75 0.76 0.71 0.68 0.66 0.67 0.55 0.54 0.61 0.67 0.66 0.70 0.79 0.77 0.73 0.72 0.72 0.70 0.67 0.66 0.68 0.67 0.66 0.66 0.69 0.68 0.67 0.66 0.74 0.76 0.72 0.70 0.69
0.56 0.63 0.56 0.52 0.58 0.60 0.61 0.66 0.67 0.69 0.68 0.67 0.64 0.63 0.55 0.60 0.60 0.61 0.57 0.62 0.67 0.71 0.79 0.82 0.79 0.73 0.71 0.71 0.70 0.71 0.66 0.65 0.61 0.59 0.58 0.62 0.64 0.64 0.68 0.73 0.74 0.76 0.81 0.80
0.58 0.52 0.45 0.42 0.58 0.57 0.58 0.67 0.70 0.64 0.60 0.61 0.56 0.55 0.54 0.56 0.53 0.53 0.52 0.57 0.65 0.71 0.77 0.82 0.77 0.70 0.68 0.69 0.70 0.71 0.65 0.61 0.55 0.52 0.55 0.58 0.61 0.67 0.71 0.72 0.74 0.82 0.83 0.84
Wind_Speed
4 5 5 7 6 3 6 5 5 4 3 4 6 7 6 8 8 8 11 13 14 15 13 13 13 13 14 14 15 15 15 13 11 10 10 9 10 11 11 10 10 11 10 10
4 2 3 3 3 3 6 4 5 2 2 4 4 7 7 10 11 10 9 12 15 15 15 15 14 14 15 15 16 17 17 16 15 14 12 11 11 11 11 11 11 11 11 12
5 4 3 3 3 4 8 8 7 4 4 3 5 6 6 9 11 12 11 11 13 16 16 16 15 16 16 17 17 18 19 19 18 17 15 14 14 14 13 13 13 12 12 13
7 5 4 5 5 6 5 5 7 6 5 5 3 4 4 7 10 12 15 14 13 15 17 17 16 16 17 17 17 18 19 20 20 20 19 18 18 17 16 15 14 14 14 14
7 7 4 5 5 7 4 4 4 3 4 6 5 6 5 7 8 12 14 16 17 15 16 17 17 17 17 17 17 17 19 21 22 22 22 21 21 20 18 17 17 16 15 15
13 11 10 7 6 7 5 3 1 3 5 8 8 8 8 5 4 5 10 16 19 18 17 16 16 16 16 16 17 17 19 21 23 24 24 24 24 22 21 20 19 17 17 16
14 16 13 12 7 9 10 9 8 8 8 9 7 9 13 10 9 10 13 14 18 20 19 18 17 17 16 16 16 16 17 19 22 25 25 26 25 25 24 23 21 20 19 19
14 15 15 15 18 15 16 14 13 14 12 12 9 12 11 12 12 13 14 14 16 19 21 20 20 19 18 18 18 18 18 19 21 22 24 26 27 26 25 24 23 22 21 20
14 15 14 13 13 16 14 16 15 14 12 15 14 16 16 14 13 12 11 10 10 11 13 16 16 17 19 19 19 18 16 16 16 17 22 26 28 28 27 23 23 21 19 17
14 17 16 13 11 11 14 12 14 14 15 17 15 15 16 13 13 11 11 10 9 10 14 16 17 17 18 18 19 19 18 15 16 16 17 16 19 23 23 17 19 15 16 13
12 15 18 14 15 18 14 14 14 14 15 20 21 16 14 14 13 11 11 10 11 11 12 15 16 18 18 19 21 19 20 22 21 14 19 15 14 13 11 14 14 14 15 16
12 14 16 20 16 17 17 20 18 17 16 16 17 17 13 13 12 13 13 12 13 12 13 14 16 17 18 18 19 21 22 25 30 28 17 16 14 12 11 13 13 16 17 18
14 14 15 16 14 15 18 17 17 16 16 18 19 18 14 15 15 15 14 12 12 12 12 12 14 15 15 16 18 19 20 20 18 17 18 17 16 15 14 15 17 17 18 17
17 18 20 21 17 15 15 16 17 18 17 17 18 19 17 17 16 15 14 13 13 12 12 12 13 13 14 15 15 15 14 14 15 13 14 14 15 16 15 15 16 16 17 17
20 23 21 21 19 18 16 16 16 17 17 18 16 18 17 17 16 14 14 14 14 14 13 13 13 13 13 13 14 14 14 14 13 14 14 14 14 15 16 16 17 18 18 20
16 17 18 20 17 15 15 14 14 14 14 16 17 17 15 14 13 13 14 14 14 15 13 13 14 14 14 14 14 14 14 14 14 13 14 14 14 14 15 16 17 19 21 22
16 16 15 17 14 14 16 13 14 14 14 14 15 14 13 12 12 12 12 13 13 13 14 14 14 15 14 14 14 14 14 14 15 15 15 15 15 16 17 18 20 21 23 24
13 12 13 13 12 14 11 12 12 12 13 15 14 12 11 10 11 12 12 13 13 14 14 15 15 15 15 14 14 14 15 16 16 16 16 16 17 18 19 20 21 22 23 24
13 12 10 11 12 12 11 12 11 11 8 8 7 8 8 8 8 10 11 12 13 16 18 20 17 14 15 15 14 15 15 15 16 16 17 18 19 20 20 20 21 22 22 23
7 8 10 10 11 12 9 10 10 9 8 9 9 9 9 8 10 10 13 14 14 13 13 10 11 11 10 12 12 13 14 15 16 16 17 17 17 18 19 20 21 21 22 24
7 6 8 9 10 9 9 9 9 10 7 9 10 10 10 11 11 12 11 11 10 9 8 8 8 9 9 10 12 13 14 14 14 14 15 16 17 18 20 21 21 22 23 24
7 6 5 4 6 7 6 6 9 8 8 8 8 9 10 10 9 8 8 9 9 8 8 9 9 10 11 12 13 14 14 13 13 14 16 18 20 20 21 20 21 21 23 23
7 7 5 7 5 5 7 7 8 8 8 8 8 8 10 11 10 9 9 9 9 8 9 9 9 10 11 13 14 13 13 13 15 17 19 20 20 20 20 20 20 21 22 22
8 7 7 7 6 7 8 8 7 7 7 7 7 8 9 9 8 7 7 8 9 9 9 9 10 11 13 13 12 13 14 14 15 15 16 16 16 16 16 16 17 18 18 17
6 7 6 7 8 8 7 7 6 6 5 5 5 7 7 8 8 8 7 8 10 10 11 11 11 12 12 11 12 13 14 13 13 14 15 14 15 15 15 16 16 17 17 17
7 6 6 6 7 7 7 7 7 6 6 6 5 6 6 6 7 8 9 9 10 11 12 12 11 11 11 11 12 12 12 12 12 13 14 14 15 16 17 17 18 17 18 20
Wind_Direction
136 128 117 127 163 194 196 200 181 181 184 202 234 250 226 207 204 205 210 207 208 210 207 207 208 207 207 208 210 211 213 214 214 212 210 213 217 221 224 231 234 238 244 244
175 180 151 143 180 218 195 207 217 187 223 239 255 250 223 212 215 211 206 210 215 216 218 217 216 217 218 219 219 220 221 222 223 223 225 227 229 230 232 238 241 246 248 248
199 170 159 196 226 228 233 245 249 262 240 228 285 271 215 223 229 229 228 223 223 222 222 221 220 222 225 227 227 227 228 228 229 229 232 235 237 238 239 242 243 247 255 250
220 242 229 226 240 225 250 247 242 247 245 252 303 265 280 241 237 231 231 232 232 227 227 227 227 227 229 231 231 232 232 232 233 234 237 239 241 240 242 244 245 251 259 256
219 215 237 273 261 214 252 246 217 227 232 255 249 275 272 285 263 242 243 236 234 233 227 228 230 232 234 235 234 235 234 235 236 237 241 242 242 243 246 248 249 253 258 260
240 247 258 247 272 228 203 184 251 268 262 255 260 250 279 274 292 293 259 248 236 231 229 231 233 235 235 235 236 239 239 240 240 240 242 244 244 245 247 249 250 251 257 258
249 252 250 246 246 235 253 239 269 267 262 263 264 248 260 274 283 292 291 268 240 233 233 232 232 231 233 235 237 242 244 245 246 244 245 248 248 247 247 247 248 249 254 259
252 252 248 246 245 248 237 254 260 267 263 271 265 261 271 283 279 290 295 280 250 239 235 236 237 237 240 241 242 247 253 254 254 250 250 251 249 248 246 246 247 249 254 260
248 254 253 250 250 243 245 246 262 264 271 273 269 275 276 276 283 290 293 286 265 249 241 238 238 241 243 244 247 249 254 261 261 261 262 258 253 248 242 241 244 245 253 247
246 258 251 256 246 248 251 249 254 256 265 268 269 275 276 274 276 287 288 277 264 261 249 246 245 244 248 248 248 246 248 258 277 269 274 285 252 252 230 247 254 245 241 251
244 250 250 256 251 251 250 255 255 262 263 271 277 278 281 281 279 277 279 270 263 259 252 248 248 246 248 251 252 243 257 257 275 266 278 280 255 257 249 244 247 253 260 264
254 255 254 257 261 260 256 254 251 259 264 268 277 278 281 279 274 274 276 272 265 262 257 253 250 247 252 253 253 257 269 270 278 279 288 265 274 263 261 259 269 265 270 275
250 257 262 258 254 254 253 251 251 260 266 264 274 281 279 275 275 276 269 271 264 258 258 256 256 257 256 259 266 274 277 282 279 279 281 277 274 268 275 272 275 277 279 277
256 257 259 262 265 263 257 255 253 254 260 268 272 282 274 273 273 271 268 263 260 259 258 258 258 258 259 260 266 273 280 285 288 287 286 285 276 274 272 278 280 281 282 283
261 262 257 261 263 260 258 256 250 249 260 266 280 280 288 270 268 268 262 259 256 258 256 256 255 257 260 262 267 274 277 282 283 286 285 286 285 282 283 284 285 283 282 285
264 264 255 253 254 259 258 255 255 260 264 269 276 280 281 271 267 259 256 257 257 257 255 253 254 258 261 263 266 270 275 279 283 286 286 286 286 286 285 285 283 284 285 286
262 254 251 250 251 259 253 259 262 266 268 274 276 287 270 266 259 255 257 256 252 251 250 251 256 259 261 264 266 268 274 278 282 286 286 285 284 286 289 289 289 289 289 289
254 248 250 250 248 250 257 258 263 267 273 269 274 270 260 259 264 262 258 247 252 250 257 259 264 260 260 262 265 272 276 278 280 283 284 284 286 289 291 293 293 293 293 292
253 238 241 244 245 263 257 252 256 265 277 272 254 257 255 256 262 267 253 250 262 257 268 263 260 255 261 260 268 277 278 277 279 282 285 288 290 291 292 294 295 297 298 297
246 242 248 245 252 253 262 254 248 258 257 261 259 253 252 250 274 277 259 267 271 269 266 254 239 254 259 257 268 273 278 279 281 283 285 289 290 292 294 295 298 299 299 300
241 256 256 245 250 258 258 247 242 253 267 272 255 253 250 266 285 282 266 263 264 261 255 243 246 254 262 267 274 280 282 282 284 287 289 291 292 294 296 297 297 299 300 301
239 235 236 234 235 248 248 237 248 265 267 266 262 255 252 267 280 278 265 252 255 249 246 249 255 262 270 275 279 284 283 282 285 289 291 292 294 294 295 294 297 299 303 304
233 246 252 243 252 258 255 263 259 268 267 262 263 265 261 262 269 270 264 249 243 246 252 256 263 269 276 280 280 283 283 285 288 291 295 295 294 294 295 294 298 301 302 303
229 235 246 250 246 261 266 257 258 257 266 256 262 269 268 264 262 271 262 249 248 254 255 260 271 273 282 282 280 283 286 289 291 295 298 301 302 302 300 300 303 305 307 308
235 216 237 256 263 265 259 241 246 255 253 252 265 278 277 256 255 264 266 263 259 260 261 266 274 280 282 279 281 287 289 289 292 296 299 300 301 301 303 306 307 307 307 308
213 225 247 265 258 257 250 239 246 246 241 246 266 286 276 253 263 272 276 273 267 265 264 265 273 278 279 280 288 292 289 289 295 299 301 300 300 301 303 306 307 306 304 305